Time,TemperatureF,DewpointF,PressureIn,WindDirection,WindDirectionDegrees,WindSpeedMPH,WindSpeedGustMPH,Humidity,HourlyPrecipIn,Conditions,Clouds,dailyrainin,SoftwareType,DateUTC
2013-01-14 00:01:00,3.0,-13.5,22.94,West,275,0.0,0.0,45,0.00,,---,0.00,VWS V14.00,2013-01-14 07:01:00,
2013-01-14 00:06:00,2.8,-13.7,22.94,West,275,0.0,0.0,45,0.00,,---,0.00,VWS V14.00,2013-01-14 07:06:00,
2013-01-14 00:11:00,2.8,-13.7,22.94,West,275,0.0,0.0,45,0.00,,---,0.00,VWS V14.00,2013-01-14 07:11:00,
2013-01-14 00:16:00,2.5,-14.0,22.92,West,275,0.0,0.0,45,0.00,,---,0.00,VWS V14.00,2013-01-14 07:16:00,
2013-01-14 00:21:00,1.9,-14.5,22.92,West,275,0.0,0.0,45,0.00,,---,0.00,VWS V14.00,2013-01-14 07:21:00,
2013-01-14 00:26:00,1.9,-14.5,22.92,West,275,0.0,0.0,45,0.00,,---,0.00,VWS V14.00,2013-01-14 07:26:00,
2013-01-14 00:31:00,1.6,-14.8,22.92,West,275,0.0,0.0,45,0.00,,---,0.00,VWS V14.00,2013-01-14 07:31:00,
2013-01-14 00:36:00,1.2,-15.2,22.92,West,275,0.0,0.0,45,0.00,,---,0.00,VWS V14.00,2013-01-14 07:36:00,
2013-01-14 00:41:00,1.2,-15.2,22.92,West,275,0.0,0.0,45,0.00,,---,0.00,VWS V14.00,2013-01-14 07:41:00,
2013-01-14 00:46:00,1.0,-15.3,22.92,West,275,0.0,0.0,45,0.00,,---,0.00,VWS V14.00,2013-01-14 07:46:00,
2013-01-14 00:51:00,0.7,-15.7,22.92,West,275,0.0,0.0,45,0.00,,---,0.00,VWS V14.00,2013-01-14 07:51:00,
2013-01-14 00:56:00,0.7,-15.7,22.92,West,275,0.0,0.0,45,0.00,,---,0.00,VWS V14.00,2013-01-14 07:56:00,
2013-01-14 01:01:00,0.5,-15.8,22.92,West,275,0.0,0.0,45,0.00,,---,0.00,VWS V14.00,2013-01-14 08:01:00,
2013-01-14 01:06:00,0.3,-16.0,22.92,West,275,0.0,0.0,45,0.00,,---,0.00,VWS V14.00,2013-01-14 08:06:00,
2013-01-14 01:11:00,0.1,-16.2,22.92,West,275,0.0,0.0,45,0.00,,---,0.00,VWS V14.00,2013-01-14 08:11:00,
2013-01-14 01:16:00,0.0,-16.3,22.92,West,275,0.0,0.0,45,0.00,,---,0.00,VWS V14.00,2013-01-14 08:16:00,
2013-01-14 01:21:00,-0.2,-16.5,22.92,West,275,0.0,0.0,45,0.00,,---,0.00,VWS V14.00,2013-01-14 08:21:00,
2013-01-14 01:26:00,-0.6,-16.8,22.92,West,275,0.0,0.0,45,0.00,,---,0.00,VWS V14.00,2013-01-14 08:26:00,
2013-01-14 01:31:00,-0.8,-17.0,22.92,West,275,0.0,0.0,45,0.00,,---,0.00,VWS V14.00,2013-01-14 08:31:00,
2013-01-14 01:37:00,-0.9,-17.1,22.92,West,275,0.0,0.0,45,0.00,,---,0.00,VWS V14.00,2013-01-14 08:37:00,
2013-01-14 01:42:00,-0.9,-17.1,22.92,West,275,0.0,0.0,45,0.00,,---,0.00,VWS V14.00,2013-01-14 08:42:00,
2013-01-14 01:47:00,-1.1,-17.3,22.92,West,275,0.0,0.0,45,0.00,,---,0.00,VWS V14.00,2013-01-14 08:47:00,
2013-01-14 01:52:00,-1.3,-17.5,22.92,West,275,0.0,0.0,45,0.00,,---,0.00,VWS V14.00,2013-01-14 08:52:00,
2013-01-14 01:57:00,-1.7,-17.8,22.92,West,275,0.0,0.0,45,0.00,,---,0.00,VWS V14.00,2013-01-14 08:57:00,
2013-01-14 02:02:00,-1.7,-17.8,22.92,West,275,0.0,0.0,45,0.00,,---,0.00,VWS V14.00,2013-01-14 09:02:00,
2013-01-14 02:07:00,-1.8,-18.0,22.92,West,275,0.0,0.0,45,0.00,,---,0.00,VWS V14.00,2013-01-14 09:07:00,
2013-01-14 02:12:00,-1.8,-18.0,22.92,West,275,0.0,0.0,45,0.00,,---,0.00,VWS V14.00,2013-01-14 09:12:00,
2013-01-14 02:17:00,-2.0,-18.1,22.92,West,275,0.0,0.0,45,0.00,,---,0.00,VWS V14.00,2013-01-14 09:17:00,
2013-01-14 02:22:00,-1.8,-18.0,22.92,West,275,0.0,0.0,45,0.00,,---,0.00,VWS V14.00,2013-01-14 09:22:00,
2013-01-14 02:27:00,-1.8,-18.0,22.92,West,275,0.0,0.0,45,0.00,,---,0.00,VWS V14.00,2013-01-14 09:27:00,
2013-01-14 02:32:00,-1.3,-17.5,22.92,West,275,0.0,0.0,45,0.00,,---,0.00,VWS V14.00,2013-01-14 09:32:00,
2013-01-14 02:37:00,-1.1,-17.3,22.92,West,275,0.0,0.0,45,0.00,,---,0.00,VWS V14.00,2013-01-14 09:37:00,
2013-01-14 02:42:00,-0.9,-17.1,22.92,West,275,0.0,0.0,45,0.00,,---,0.00,VWS V14.00,2013-01-14 09:42:00,
2013-01-14 02:47:00,-0.6,-16.8,22.92,West,275,0.0,0.0,45,0.00,,---,0.00,VWS V14.00,2013-01-14 09:47:00,
2013-01-14 02:52:00,-0.6,-16.8,22.92,West,275,0.0,0.0,45,0.00,,---,0.00,VWS V14.00,2013-01-14 09:52:00,
2013-01-14 02:57:00,-0.2,-16.5,22.92,West,275,0.0,0.0,45,0.00,,---,0.00,VWS V14.00,2013-01-14 09:57:00,
2013-01-14 03:02:00,0.0,-16.3,22.92,West,275,0.0,0.0,45,0.00,,---,0.00,VWS V14.00,2013-01-14 10:02:00,
2013-01-14 03:07:00,0.3,-16.0,22.92,West,275,0.0,0.0,45,0.00,,---,0.00,VWS V14.00,2013-01-14 10:07:00,
2013-01-14 03:13:00,0.7,-15.7,22.92,West,275,0.0,0.0,45,0.00,,---,0.00,VWS V14.00,2013-01-14 10:13:00,
2013-01-14 03:18:00,0.9,-15.5,22.92,West,275,0.0,0.0,45,0.00,,---,0.00,VWS V14.00,2013-01-14 10:18:00,
2013-01-14 03:23:00,1.2,-15.2,22.92,West,275,0.0,0.0,45,0.00,,---,0.00,VWS V14.00,2013-01-14 10:23:00,
2013-01-14 03:28:00,1.2,-15.2,22.92,West,275,0.0,0.0,45,0.00,,---,0.00,VWS V14.00,2013-01-14 10:28:00,
2013-01-14 03:33:00,1.0,-15.3,22.92,West,275,0.0,0.0,45,0.00,,---,0.00,VWS V14.00,2013-01-14 10:33:00,
2013-01-14 03:38:00,1.2,-15.2,22.92,West,275,0.0,0.0,45,0.00,,---,0.00,VWS V14.00,2013-01-14 10:38:00,
2013-01-14 03:43:00,1.2,-15.2,22.92,West,275,0.0,0.0,45,0.00,,---,0.00,VWS V14.00,2013-01-14 10:43:00,
2013-01-14 03:48:00,1.2,-15.2,22.92,West,275,0.0,0.0,45,0.00,,---,0.00,VWS V14.00,2013-01-14 10:48:00,
2013-01-14 03:53:00,1.0,-15.3,22.92,West,275,0.0,0.0,45,0.00,,---,0.00,VWS V14.00,2013-01-14 10:53:00,
2013-01-14 03:58:00,1.0,-15.3,22.92,West,275,0.0,0.0,45,0.00,,---,0.00,VWS V14.00,2013-01-14 10:58:00,
2013-01-14 04:03:00,1.0,-15.3,22.92,West,275,0.0,0.0,45,0.00,,---,0.00,VWS V14.00,2013-01-14 11:03:00,
2013-01-14 04:08:00,1.0,-15.3,22.92,West,275,0.0,0.0,45,0.00,,---,0.00,VWS V14.00,2013-01-14 11:08:00,
2013-01-14 04:14:00,0.7,-15.7,22.92,West,275,0.0,0.0,45,0.00,,---,0.00,VWS V14.00,2013-01-14 11:14:00,
2013-01-14 04:19:00,0.7,-15.7,22.92,West,275,0.0,0.0,45,0.00,,---,0.00,VWS V14.00,2013-01-14 11:19:00,
2013-01-14 04:24:00,0.7,-15.7,22.92,West,275,0.0,0.0,45,0.00,,---,0.00,VWS V14.00,2013-01-14 11:24:00,
2013-01-14 04:29:00,0.7,-15.7,22.92,West,275,0.0,0.0,45,0.00,,---,0.00,VWS V14.00,2013-01-14 11:29:00,
2013-01-14 04:34:00,0.5,-15.8,22.92,West,275,0.0,0.0,45,0.00,,---,0.00,VWS V14.00,2013-01-14 11:34:00,
2013-01-14 04:39:00,0.3,-16.0,22.92,West,275,0.0,0.0,45,0.00,,---,0.00,VWS V14.00,2013-01-14 11:39:00,
2013-01-14 04:44:00,0.3,-16.0,22.92,West,275,0.0,0.0,45,0.00,,---,0.00,VWS V14.00,2013-01-14 11:44:00,
2013-01-14 04:49:00,0.1,-16.2,22.92,West,275,0.0,0.0,45,0.00,,---,0.00,VWS V14.00,2013-01-14 11:49:00,
2013-01-14 04:54:00,0.1,-16.2,22.92,West,275,0.0,0.0,45,0.00,,---,0.00,VWS V14.00,2013-01-14 11:54:00,
2013-01-14 04:59:00,0.3,-16.0,22.92,West,275,0.0,0.0,45,0.00,,---,0.00,VWS V14.00,2013-01-14 11:59:00,
2013-01-14 05:04:00,0.3,-16.0,22.92,West,275,0.0,0.0,45,0.00,,---,0.00,VWS V14.00,2013-01-14 12:04:00,
2013-01-14 05:09:00,0.3,-16.0,22.92,West,275,0.0,0.0,45,0.00,,---,0.00,VWS V14.00,2013-01-14 12:09:00,
2013-01-14 05:14:00,0.3,-16.0,22.92,West,275,0.0,0.0,45,0.00,,---,0.00,VWS V14.00,2013-01-14 12:14:00,
2013-01-14 05:19:00,0.1,-16.2,22.92,West,275,0.0,0.0,45,0.00,,---,0.00,VWS V14.00,2013-01-14 12:19:00,
2013-01-14 05:24:00,0.0,-16.3,22.92,West,275,0.0,0.0,45,0.00,,---,0.00,VWS V14.00,2013-01-14 12:24:00,
2013-01-14 05:29:00,0.0,-16.3,22.92,West,275,0.0,0.0,45,0.00,,---,0.00,VWS V14.00,2013-01-14 12:29:00,
2013-01-14 05:35:00,-0.2,-16.5,22.92,West,275,0.0,0.0,45,0.00,,---,0.00,VWS V14.00,2013-01-14 12:35:00,
2013-01-14 05:40:00,-0.2,-16.5,22.92,West,275,0.0,0.0,45,0.00,,---,0.00,VWS V14.00,2013-01-14 12:40:00,
2013-01-14 05:45:00,-0.2,-16.5,22.92,West,275,0.0,0.0,45,0.00,,---,0.00,VWS V14.00,2013-01-14 12:45:00,
2013-01-14 05:50:00,-0.2,-16.5,22.92,West,275,0.0,0.0,45,0.00,,---,0.00,VWS V14.00,2013-01-14 12:50:00,
2013-01-14 05:55:00,0.1,-16.2,22.92,West,275,0.0,0.0,45,0.00,,---,0.00,VWS V14.00,2013-01-14 12:55:00,
2013-01-14 06:00:00,0.3,-16.0,22.94,West,275,0.0,0.0,45,0.00,,---,0.00,VWS V14.00,2013-01-14 13:00:00,
2013-01-14 06:05:00,0.7,-15.7,22.94,West,275,0.0,0.0,45,0.00,,---,0.00,VWS V14.00,2013-01-14 13:05:00,
2013-01-14 06:10:00,1.0,-15.3,22.94,West,275,0.0,0.0,45,0.00,,---,0.00,VWS V14.00,2013-01-14 13:10:00,
2013-01-14 06:15:00,1.2,-15.2,22.94,West,275,0.0,0.0,45,0.00,,---,0.00,VWS V14.00,2013-01-14 13:15:00,
2013-01-14 06:20:00,1.2,-15.2,22.94,West,275,0.0,0.0,45,0.00,,---,0.00,VWS V14.00,2013-01-14 13:20:00,
2013-01-14 06:25:00,1.4,-15.0,22.94,West,275,0.0,0.0,45,0.00,,---,0.00,VWS V14.00,2013-01-14 13:25:00,
2013-01-14 06:30:00,1.6,-14.8,22.94,West,275,0.0,0.0,45,0.00,,---,0.00,VWS V14.00,2013-01-14 13:30:00,
2013-01-14 06:35:00,1.8,-14.7,22.94,West,275,0.0,0.0,45,0.00,,---,0.00,VWS V14.00,2013-01-14 13:35:00,
2013-01-14 06:40:00,1.8,-14.7,22.94,West,275,0.0,0.0,45,0.00,,---,0.00,VWS V14.00,2013-01-14 13:40:00,
2013-01-14 06:45:00,1.9,-14.5,22.94,West,275,0.0,0.0,45,0.00,,---,0.00,VWS V14.00,2013-01-14 13:45:00,
2013-01-14 06:50:00,1.9,-14.5,22.94,West,275,0.0,0.0,45,0.00,,---,0.00,VWS V14.00,2013-01-14 13:50:00,
2013-01-14 06:55:00,1.9,-14.5,22.94,West,275,0.0,0.0,45,0.00,,---,0.00,VWS V14.00,2013-01-14 13:55:00,
2013-01-14 07:00:00,1.9,-14.5,22.94,West,275,0.0,0.0,45,0.00,,---,0.00,VWS V14.00,2013-01-14 14:00:00,
2013-01-14 07:05:00,1.9,-14.5,22.94,West,275,0.0,0.0,45,0.00,,---,0.00,VWS V14.00,2013-01-14 14:05:00,
2013-01-14 07:10:00,1.9,-14.5,22.94,West,275,0.0,0.0,45,0.00,,---,0.00,VWS V14.00,2013-01-14 14:10:00,
2013-01-14 07:15:00,1.9,-14.5,22.94,West,275,0.0,0.0,45,0.00,,---,0.00,VWS V14.00,2013-01-14 14:15:00,
2013-01-14 07:20:00,1.9,-14.5,22.94,West,275,0.0,0.0,45,0.00,,---,0.00,VWS V14.00,2013-01-14 14:20:00,
2013-01-14 07:25:00,1.9,-14.5,22.94,West,275,0.0,0.0,45,0.00,,---,0.00,VWS V14.00,2013-01-14 14:25:00,
2013-01-14 07:30:00,2.1,-14.3,22.94,West,275,0.0,0.0,45,0.00,,---,0.00,VWS V14.00,2013-01-14 14:30:00,
2013-01-14 07:36:00,2.3,-14.2,22.94,West,275,0.0,0.0,45,0.00,,---,0.00,VWS V14.00,2013-01-14 14:36:00,
2013-01-14 07:41:00,2.5,-14.0,22.94,West,275,0.0,0.0,45,0.00,,---,0.00,VWS V14.00,2013-01-14 14:41:00,
2013-01-14 07:46:00,2.7,-13.8,22.94,West,275,0.0,0.0,45,0.00,,---,0.00,VWS V14.00,2013-01-14 14:46:00,
2013-01-14 07:51:00,2.8,-13.7,22.94,West,275,0.0,0.0,45,0.00,,---,0.00,VWS V14.00,2013-01-14 14:51:00,
2013-01-14 07:56:00,3.2,-13.3,22.94,West,275,0.0,0.0,45,0.00,,---,0.00,VWS V14.00,2013-01-14 14:56:00,
2013-01-14 08:01:00,3.2,-13.3,22.94,West,275,0.0,0.0,45,0.00,,---,0.00,VWS V14.00,2013-01-14 15:01:00,
2013-01-14 08:06:00,3.6,-13.0,22.94,West,275,0.0,0.0,45,0.00,,---,0.00,VWS V14.00,2013-01-14 15:06:00,
2013-01-14 08:11:00,3.7,-12.9,22.94,West,275,0.0,0.0,45,0.00,,---,0.00,VWS V14.00,2013-01-14 15:11:00,
2013-01-14 08:16:00,3.7,-12.9,22.94,West,275,0.0,0.0,45,0.00,,---,0.00,VWS V14.00,2013-01-14 15:16:00,
2013-01-14 08:21:00,3.9,-12.7,22.94,West,275,0.0,0.0,45,0.00,,---,0.00,VWS V14.00,2013-01-14 15:21:00,
2013-01-14 08:26:00,4.1,-12.5,22.94,West,275,0.0,0.0,45,0.00,,---,0.00,VWS V14.00,2013-01-14 15:26:00,
2013-01-14 08:31:00,4.5,-12.2,22.94,West,275,0.0,0.0,45,0.00,,---,0.00,VWS V14.00,2013-01-14 15:31:00,
2013-01-14 08:36:00,5.0,-11.7,22.94,West,275,0.0,0.0,45,0.00,,---,0.00,VWS V14.00,2013-01-14 15:36:00,
2013-01-14 08:41:00,5.2,-11.5,22.94,West,275,0.0,0.0,45,0.00,,---,0.00,VWS V14.00,2013-01-14 15:41:00,
2013-01-14 08:46:00,5.5,-11.2,22.94,West,275,0.0,0.0,45,0.00,,---,0.00,VWS V14.00,2013-01-14 15:46:00,
2013-01-14 08:51:00,6.1,-10.7,22.94,West,275,0.0,0.0,45,0.00,,---,0.00,VWS V14.00,2013-01-14 15:51:00,
2013-01-14 08:56:00,6.8,-10.0,22.94,West,275,0.0,0.0,45,0.00,,---,0.00,VWS V14.00,2013-01-14 15:56:00,
2013-01-14 09:01:00,7.7,-9.2,22.94,West,279,0.0,0.0,45,0.00,,---,0.00,VWS V14.00,2013-01-14 16:01:00,
2013-01-14 09:06:00,8.6,-8.4,22.94,ENE,71,3.1,3.6,45,0.00,,---,0.00,VWS V14.00,2013-01-14 16:06:00,
2013-01-14 09:11:00,9.5,-7.6,22.94,East,80,2.2,4.0,45,0.00,,---,0.00,VWS V14.00,2013-01-14 16:11:00,
2013-01-14 09:16:00,10.2,-6.9,22.94,ESE,122,0.0,2.7,45,0.00,,---,0.00,VWS V14.00,2013-01-14 16:16:00,
2013-01-14 09:21:00,10.8,-6.4,22.94,SE,125,2.2,4.5,45,0.00,,---,0.00,VWS V14.00,2013-01-14 16:21:00,
2013-01-14 09:26:00,11.3,-5.9,22.94,East,98,2.7,3.6,45,0.00,,---,0.00,VWS V14.00,2013-01-14 16:26:00,
2013-01-14 09:31:00,11.8,-5.4,22.94,SSE,157,5.4,5.4,45,0.00,,---,0.00,VWS V14.00,2013-01-14 16:31:00,
2013-01-14 09:36:00,12.4,-4.9,22.94,ESE,107,5.4,6.3,45,0.00,,---,0.00,VWS V14.00,2013-01-14 16:36:00,
2013-01-14 09:41:00,12.7,-4.6,22.94,SSE,152,5.4,6.7,45,0.00,,---,0.00,VWS V14.00,2013-01-14 16:41:00,
2013-01-14 09:46:00,13.5,-3.9,22.94,SE,132,6.3,6.3,45,0.00,,---,0.00,VWS V14.00,2013-01-14 16:46:00,
2013-01-14 09:51:00,13.8,-3.6,22.94,ESE,123,8.3,8.3,45,0.00,,---,0.00,VWS V14.00,2013-01-14 16:51:00,
2013-01-14 09:56:00,14.5,-3.4,22.94,ESE,120,5.4,5.4,44,0.00,,---,0.00,VWS V14.00,2013-01-14 16:56:00,
2013-01-14 10:01:00,15.3,-2.7,22.94,SSE,148,5.4,5.4,44,0.00,,---,0.00,VWS V14.00,2013-01-14 17:01:00,
2013-01-14 10:06:00,15.8,-2.2,22.94,SE,135,4.0,6.3,44,0.00,,---,0.00,VWS V14.00,2013-01-14 17:06:00,
2013-01-14 10:11:00,16.0,-2.1,22.94,SE,142,4.9,5.4,44,0.00,,---,0.00,VWS V14.00,2013-01-14 17:11:00,
2013-01-14 10:16:00,16.5,-1.6,22.94,SE,124,7.6,7.6,44,0.00,,---,0.00,VWS V14.00,2013-01-14 17:16:00,
2013-01-14 10:21:00,16.7,-1.4,22.94,ESE,110,4.9,5.4,44,0.00,,---,0.00,VWS V14.00,2013-01-14 17:21:00,
2013-01-14 10:26:00,16.7,-1.4,22.94,ESE,117,4.0,8.3,44,0.00,,---,0.00,VWS V14.00,2013-01-14 17:26:00,
2013-01-14 10:31:00,16.7,-1.4,22.97,ESE,115,5.4,8.1,44,0.00,,---,0.00,VWS V14.00,2013-01-14 17:31:00,
2013-01-14 10:36:00,17.2,-0.9,22.97,East,88,3.1,7.2,44,0.00,,---,0.00,VWS V14.00,2013-01-14 17:36:00,
2013-01-14 10:41:00,17.4,-0.8,22.97,South,169,5.8,6.3,44,0.00,,---,0.00,VWS V14.00,2013-01-14 17:41:00,
2013-01-14 10:46:00,18.3,-0.4,22.97,East,98,5.4,7.6,43,0.00,,---,0.00,VWS V14.00,2013-01-14 17:46:00,
2013-01-14 10:51:00,18.3,-0.4,22.97,SE,124,5.4,5.8,43,0.00,,---,0.00,VWS V14.00,2013-01-14 17:51:00,
2013-01-14 10:56:00,18.5,-0.3,22.97,South,188,6.3,6.3,43,0.00,,---,0.00,VWS V14.00,2013-01-14 17:56:00,
2013-01-14 11:01:00,18.7,-0.1,22.94,ESE,123,5.4,7.2,43,0.00,,---,0.00,VWS V14.00,2013-01-14 18:01:00,
2013-01-14 11:06:00,19.6,0.7,22.94,ESE,117,5.4,5.4,43,0.00,,---,0.00,VWS V14.00,2013-01-14 18:06:00,
2013-01-14 11:11:00,20.7,1.7,22.94,SE,133,5.4,7.2,43,0.00,,---,0.00,VWS V14.00,2013-01-14 18:11:00,
2013-01-14 11:17:00,21.0,2.0,22.94,ESE,113,6.7,6.7,43,0.00,,---,0.00,VWS V14.00,2013-01-14 18:17:00,
2013-01-14 11:22:00,20.8,1.9,22.94,NNW,339,5.8,10.1,43,0.00,,---,0.00,VWS V14.00,2013-01-14 18:22:00,
2013-01-14 11:27:00,19.4,0.6,22.94,SSE,151,7.6,7.6,43,0.00,,---,0.00,VWS V14.00,2013-01-14 18:27:00,
2013-01-14 11:32:00,19.2,0.4,22.97,ESE,110,4.0,5.8,43,0.00,,---,0.00,VWS V14.00,2013-01-14 18:32:00,
2013-01-14 11:37:00,19.2,0.4,22.97,SSE,155,5.4,5.8,43,0.00,,---,0.00,VWS V14.00,2013-01-14 18:37:00,
2013-01-14 11:42:00,19.0,0.2,22.97,SE,128,3.6,5.8,43,0.00,,---,0.00,VWS V14.00,2013-01-14 18:42:00,
2013-01-14 11:47:00,19.6,0.7,22.94,SSE,168,5.8,5.8,43,0.00,,---,0.00,VWS V14.00,2013-01-14 18:47:00,
2013-01-14 11:52:00,21.2,2.2,22.94,ESE,106,4.0,5.4,43,0.00,,---,0.00,VWS V14.00,2013-01-14 18:52:00,
2013-01-14 11:57:00,21.9,2.9,22.94,ESE,114,5.8,8.3,43,0.00,,---,0.00,VWS V14.00,2013-01-14 18:57:00,
2013-01-14 12:02:00,21.9,2.9,22.94,East,85,6.3,10.1,43,0.00,,---,0.00,VWS V14.00,2013-01-14 19:02:00,
2013-01-14 12:07:00,21.4,2.4,22.94,ESE,109,4.9,4.9,43,0.00,,---,0.00,VWS V14.00,2013-01-14 19:07:00,
2013-01-14 12:12:00,21.4,2.4,22.94,East,88,4.0,8.1,43,0.00,,---,0.00,VWS V14.00,2013-01-14 19:12:00,
2013-01-14 12:17:00,20.7,1.7,22.94,East,84,3.1,5.8,43,0.00,,---,0.00,VWS V14.00,2013-01-14 19:17:00,
2013-01-14 12:22:00,21.4,2.4,22.94,SE,131,5.4,8.7,43,0.00,,---,0.00,VWS V14.00,2013-01-14 19:22:00,
2013-01-14 12:27:00,21.4,2.4,22.94,ENE,61,8.1,8.7,43,0.00,,---,0.00,VWS V14.00,2013-01-14 19:27:00,
2013-01-14 12:32:00,20.8,1.9,22.94,ESE,118,8.7,10.5,43,0.00,,---,0.00,VWS V14.00,2013-01-14 19:32:00,
2013-01-14 12:38:00,21.0,2.0,22.94,East,83,5.4,5.4,43,0.00,,---,0.00,VWS V14.00,2013-01-14 19:38:00,
2013-01-14 12:43:00,21.0,2.0,22.94,East,89,5.8,5.8,43,0.00,,---,0.00,VWS V14.00,2013-01-14 19:43:00,
2013-01-14 12:48:00,21.0,2.0,22.94,East,97,4.0,4.9,43,0.00,,---,0.00,VWS V14.00,2013-01-14 19:48:00,
2013-01-14 12:53:00,20.8,1.9,22.94,ESE,102,4.9,6.3,43,0.00,,---,0.00,VWS V14.00,2013-01-14 19:53:00,
2013-01-14 12:58:00,20.3,1.4,22.94,ESE,106,6.3,10.1,43,0.00,,---,0.00,VWS V14.00,2013-01-14 19:58:00,
2013-01-14 13:03:00,20.8,1.9,22.94,ESE,116,5.8,7.6,43,0.00,,---,0.00,VWS V14.00,2013-01-14 20:03:00,
2013-01-14 13:08:00,21.4,2.4,22.94,ESE,116,5.4,6.3,43,0.00,,---,0.00,VWS V14.00,2013-01-14 20:08:00,
2013-01-14 13:13:00,21.9,2.9,22.94,ENE,70,2.7,8.3,43,0.00,,---,0.00,VWS V14.00,2013-01-14 20:13:00,
2013-01-14 13:18:00,22.1,3.0,22.94,SE,142,3.6,5.8,43,0.00,,---,0.00,VWS V14.00,2013-01-14 20:18:00,
2013-01-14 13:23:00,22.3,3.2,22.94,NNE,28,6.7,6.7,43,0.00,,---,0.00,VWS V14.00,2013-01-14 20:23:00,
2013-01-14 13:28:00,22.5,3.4,22.94,SE,130,4.9,5.4,43,0.00,,---,0.00,VWS V14.00,2013-01-14 20:28:00,
2013-01-14 13:33:00,22.3,3.2,22.94,ESE,111,6.3,6.3,43,0.00,,---,0.00,VWS V14.00,2013-01-14 20:33:00,
2013-01-14 13:38:00,21.6,2.5,22.94,ESE,122,3.6,3.6,43,0.00,,---,0.00,VWS V14.00,2013-01-14 20:38:00,
2013-01-14 13:43:00,21.0,2.0,22.94,East,97,3.6,4.0,43,0.00,,---,0.00,VWS V14.00,2013-01-14 20:43:00,
2013-01-14 13:48:00,20.3,1.4,22.94,ESE,113,2.2,3.1,43,0.00,,---,0.00,VWS V14.00,2013-01-14 20:48:00,
2013-01-14 13:53:00,20.1,1.2,22.94,East,99,6.3,6.3,43,0.00,,---,0.00,VWS V14.00,2013-01-14 20:53:00,
2013-01-14 13:58:00,19.4,0.6,22.94,East,83,4.9,5.8,43,0.00,,---,0.00,VWS V14.00,2013-01-14 20:58:00,
2013-01-14 14:03:00,18.7,-0.1,22.94,ESE,104,5.8,5.8,43,0.00,,---,0.00,VWS V14.00,2013-01-14 21:03:00,
2013-01-14 14:09:00,18.5,-0.3,22.94,SE,145,3.6,3.6,43,0.00,,---,0.00,VWS V14.00,2013-01-14 21:09:00,
2013-01-14 14:14:00,18.9,0.1,22.94,SE,133,4.5,4.5,43,0.00,,---,0.00,VWS V14.00,2013-01-14 21:14:00,
2013-01-14 14:19:00,18.9,0.1,22.94,East,96,4.0,6.3,43,0.00,,---,0.00,VWS V14.00,2013-01-14 21:19:00,
2013-01-14 14:24:00,18.5,-0.3,22.94,NNE,19,7.6,7.6,43,0.00,,---,0.00,VWS V14.00,2013-01-14 21:24:00,
2013-01-14 14:29:00,18.3,-0.4,22.94,East,81,0.0,3.6,43,0.00,,---,0.00,VWS V14.00,2013-01-14 21:29:00,
2013-01-14 14:34:00,18.5,-0.3,22.94,East,94,6.3,8.7,43,0.00,,---,0.00,VWS V14.00,2013-01-14 21:34:00,
2013-01-14 14:39:00,18.1,-0.6,22.94,NE,43,4.0,6.3,43,0.00,,---,0.00,VWS V14.00,2013-01-14 21:39:00,
2013-01-14 14:44:00,17.6,-0.6,22.97,ESE,104,8.1,8.1,44,0.00,,---,0.00,VWS V14.00,2013-01-14 21:44:00,
2013-01-14 14:49:00,17.4,-0.8,22.97,East,93,4.0,7.6,44,0.00,,---,0.00,VWS V14.00,2013-01-14 21:49:00,
2013-01-14 14:54:00,17.2,-0.9,22.97,SE,133,3.6,8.1,44,0.00,,---,0.00,VWS V14.00,2013-01-14 21:54:00,
2013-01-14 14:59:00,17.4,-0.8,22.97,SE,128,8.3,8.7,44,0.00,,---,0.00,VWS V14.00,2013-01-14 21:59:00,
2013-01-14 15:04:00,17.4,-0.8,22.97,East,95,10.1,10.1,44,0.00,,---,0.00,VWS V14.00,2013-01-14 22:04:00,
2013-01-14 15:09:00,17.2,-0.9,22.97,East,99,2.7,2.7,44,0.00,,---,0.00,VWS V14.00,2013-01-14 22:09:00,
2013-01-14 15:14:00,17.6,-0.6,22.97,East,89,4.9,5.4,44,0.00,,---,0.00,VWS V14.00,2013-01-14 22:14:00,
2013-01-14 15:19:00,17.1,-1.1,22.97,East,99,5.4,8.3,44,0.00,,---,0.00,VWS V14.00,2013-01-14 22:19:00,
2013-01-14 15:24:00,16.7,-1.4,22.97,East,89,6.3,6.3,44,0.00,,---,0.00,VWS V14.00,2013-01-14 22:24:00,
2013-01-14 15:29:00,16.5,-1.6,22.97,ESE,105,5.4,8.1,44,0.00,,---,0.00,VWS V14.00,2013-01-14 22:29:00,
2013-01-14 15:34:00,16.0,-2.1,22.97,SE,139,3.6,10.1,44,0.00,,---,0.00,VWS V14.00,2013-01-14 22:34:00,
2013-01-14 15:39:00,15.8,-2.2,22.97,SSE,156,5.4,6.3,44,0.00,,---,0.00,VWS V14.00,2013-01-14 22:39:00,
2013-01-14 15:45:00,15.8,-2.2,22.97,SE,135,4.9,4.9,44,0.00,,---,0.00,VWS V14.00,2013-01-14 22:45:00,
2013-01-14 15:50:00,15.8,-2.2,22.97,ENE,62,5.4,8.3,44,0.00,,---,0.00,VWS V14.00,2013-01-14 22:50:00,
2013-01-14 15:55:00,15.6,-2.4,22.97,SE,146,3.6,5.8,44,0.00,,---,0.00,VWS V14.00,2013-01-14 22:55:00,
2013-01-14 16:00:00,15.8,-2.2,22.97,NE,55,4.9,7.6,44,0.00,,---,0.00,VWS V14.00,2013-01-14 23:00:00,
2013-01-14 16:05:00,16.0,-2.1,22.97,ESE,109,5.4,6.3,44,0.00,,---,0.00,VWS V14.00,2013-01-14 23:05:00,
2013-01-14 16:10:00,16.3,-1.7,22.97,East,81,2.7,5.4,44,0.00,,---,0.00,VWS V14.00,2013-01-14 23:10:00,
2013-01-14 16:15:00,16.7,-1.4,22.97,ESE,117,2.7,2.7,44,0.00,,---,0.00,VWS V14.00,2013-01-14 23:15:00,
2013-01-14 16:20:00,16.9,-1.2,22.97,NE,34,3.1,8.1,44,0.00,,---,0.00,VWS V14.00,2013-01-14 23:20:00,
2013-01-14 16:25:00,16.7,-1.4,22.97,SSE,154,5.4,5.4,44,0.00,,---,0.00,VWS V14.00,2013-01-14 23:25:00,
2013-01-14 16:30:00,16.2,-1.9,23.00,ENE,73,5.8,5.8,44,0.00,,---,0.00,VWS V14.00,2013-01-14 23:30:00,
2013-01-14 16:35:00,16.0,-2.1,23.00,East,83,4.0,5.8,44,0.00,,---,0.00,VWS V14.00,2013-01-14 23:35:00,
2013-01-14 16:40:00,15.8,-2.2,23.00,ENE,58,3.1,5.8,44,0.00,,---,0.00,VWS V14.00,2013-01-14 23:40:00,
2013-01-14 16:45:00,15.4,-2.6,23.00,East,79,6.3,6.3,44,0.00,,---,0.00,VWS V14.00,2013-01-14 23:45:00,
2013-01-14 16:50:00,15.1,-2.9,23.00,East,95,2.2,2.2,44,0.00,,---,0.00,VWS V14.00,2013-01-14 23:50:00,
2013-01-14 16:55:00,14.5,-3.4,23.00,East,94,3.6,5.4,44,0.00,,---,0.00,VWS V14.00,2013-01-14 23:55:00,
2013-01-14 17:00:00,14.4,-3.6,23.00,ESE,105,3.1,3.6,44,0.00,,---,0.00,VWS V14.00,2013-01-15 00:00:00,
2013-01-14 17:06:00,13.8,-3.6,23.00,SSE,154,3.6,3.6,45,0.00,,---,0.00,VWS V14.00,2013-01-15 00:06:00,
2013-01-14 17:11:00,13.5,-3.9,23.00,SE,139,4.0,4.0,45,0.00,,---,0.00,VWS V14.00,2013-01-15 00:11:00,
2013-01-14 17:16:00,13.1,-4.2,23.03,ESE,119,3.1,4.0,45,0.00,,---,0.00,VWS V14.00,2013-01-15 00:16:00,
2013-01-14 17:21:00,12.7,-4.6,23.03,SE,132,2.7,3.6,45,0.00,,---,0.00,VWS V14.00,2013-01-15 00:21:00,
2013-01-14 17:26:00,12.4,-4.9,23.03,SSE,154,3.6,4.0,45,0.00,,---,0.00,VWS V14.00,2013-01-15 00:26:00,
2013-01-14 17:31:00,12.0,-5.2,23.03,ESE,103,4.0,4.0,45,0.00,,---,0.00,VWS V14.00,2013-01-15 00:31:00,
2013-01-14 17:36:00,11.8,-5.4,23.03,ESE,120,4.0,4.0,45,0.00,,---,0.00,VWS V14.00,2013-01-15 00:36:00,
2013-01-14 17:41:00,11.7,-5.6,23.03,ESE,114,3.1,3.6,45,0.00,,---,0.00,VWS V14.00,2013-01-15 00:41:00,
2013-01-14 17:46:00,11.1,-6.1,23.03,SSE,156,2.7,5.8,45,0.00,,---,0.00,VWS V14.00,2013-01-15 00:46:00,
2013-01-14 17:51:00,10.9,-6.2,23.03,East,98,2.7,2.7,45,0.00,,---,0.00,VWS V14.00,2013-01-15 00:51:00,
2013-01-14 17:56:00,10.8,-6.4,23.03,SE,139,2.7,2.7,45,0.00,,---,0.00,VWS V14.00,2013-01-15 00:56:00,
2013-01-14 18:01:00,10.2,-6.9,23.03,SE,133,0.0,3.1,45,0.00,,---,0.00,VWS V14.00,2013-01-15 01:01:00,
2013-01-14 18:06:00,10.0,-7.1,23.03,East,101,2.7,3.1,45,0.00,,---,0.00,VWS V14.00,2013-01-15 01:06:00,
2013-01-14 18:11:00,9.7,-7.4,23.03,East,96,0.0,0.0,45,0.00,,---,0.00,VWS V14.00,2013-01-15 01:11:00,
2013-01-14 18:16:00,9.5,-7.6,23.03,ESE,122,0.0,0.0,45,0.00,,---,0.00,VWS V14.00,2013-01-15 01:16:00,
2013-01-14 18:21:00,9.3,-7.7,23.03,ESE,110,0.0,0.0,45,0.00,,---,0.00,VWS V14.00,2013-01-15 01:21:00,
2013-01-14 18:26:00,9.1,-7.9,23.03,ESE,110,0.0,0.0,45,0.00,,---,0.00,VWS V14.00,2013-01-15 01:26:00,
2013-01-14 18:31:00,8.8,-8.2,23.03,ESE,110,0.0,0.0,45,0.00,,---,0.00,VWS V14.00,2013-01-15 01:31:00,
2013-01-14 18:36:00,8.4,-8.5,23.03,ESE,110,0.0,0.0,45,0.00,,---,0.00,VWS V14.00,2013-01-15 01:36:00,
2013-01-14 18:41:00,8.2,-8.7,23.03,ESE,110,0.0,0.0,45,0.00,,---,0.00,VWS V14.00,2013-01-15 01:41:00,
2013-01-14 18:47:00,7.9,-9.0,23.03,ESE,110,0.0,0.0,45,0.00,,---,0.00,VWS V14.00,2013-01-15 01:47:00,
2013-01-14 18:52:00,7.7,-9.2,23.03,ESE,110,0.0,0.0,45,0.00,,---,0.00,VWS V14.00,2013-01-15 01:52:00,
2013-01-14 18:57:00,7.5,-9.4,23.03,ESE,110,0.0,0.0,45,0.00,,---,0.00,VWS V14.00,2013-01-15 01:57:00,
2013-01-14 19:02:00,7.2,-9.7,23.06,ESE,110,0.0,0.0,45,0.00,,---,0.00,VWS V14.00,2013-01-15 02:02:00,
2013-01-14 19:07:00,7.0,-9.9,23.06,ESE,110,0.0,0.0,45,0.00,,---,0.00,VWS V14.00,2013-01-15 02:07:00,
2013-01-14 19:12:00,6.6,-10.2,23.06,ESE,110,0.0,0.0,45,0.00,,---,0.00,VWS V14.00,2013-01-15 02:12:00,
2013-01-14 19:17:00,6.3,-10.5,23.06,ESE,110,0.0,0.0,45,0.00,,---,0.00,VWS V14.00,2013-01-15 02:17:00,
2013-01-14 19:22:00,6.3,-10.5,23.06,ESE,123,0.0,0.0,45,0.00,,---,0.00,VWS V14.00,2013-01-15 02:22:00,
2013-01-14 19:27:00,6.1,-10.7,23.06,SSE,159,0.0,0.0,45,0.00,,---,0.00,VWS V14.00,2013-01-15 02:27:00,
2013-01-14 19:32:00,5.9,-10.9,23.06,SSE,160,0.0,0.0,45,0.00,,---,0.00,VWS V14.00,2013-01-15 02:32:00,
2013-01-14 19:37:00,5.5,-11.2,23.06,SSE,160,0.0,0.0,45,0.00,,---,0.00,VWS V14.00,2013-01-15 02:37:00,
2013-01-14 19:42:00,5.4,-11.4,23.06,SSE,160,0.0,0.0,45,0.00,,---,0.00,VWS V14.00,2013-01-15 02:42:00,
2013-01-14 19:47:00,4.5,-12.2,23.06,SSE,160,0.0,0.0,45,0.00,,---,0.00,VWS V14.00,2013-01-15 02:47:00,
2013-01-14 19:52:00,4.1,-12.5,23.06,SSE,160,0.0,0.0,45,0.00,,---,0.00,VWS V14.00,2013-01-15 02:52:00,
2013-01-14 19:57:00,3.7,-12.9,23.06,SSE,160,0.0,0.0,45,0.00,,---,0.00,VWS V14.00,2013-01-15 02:57:00,
2013-01-14 20:02:00,3.6,-13.0,23.06,SSE,161,0.0,0.0,45,0.00,,---,0.00,VWS V14.00,2013-01-15 03:02:00,
2013-01-14 20:07:00,3.4,-13.2,23.06,SSE,167,0.0,0.0,45,0.00,,---,0.00,VWS V14.00,2013-01-15 03:07:00,
2013-01-14 20:12:00,3.0,-13.5,23.06,SSE,167,0.0,0.0,45,0.00,,---,0.00,VWS V14.00,2013-01-15 03:12:00,
2013-01-14 20:17:00,2.8,-13.7,23.06,SSE,167,0.0,0.0,45,0.00,,---,0.00,VWS V14.00,2013-01-15 03:17:00,
2013-01-14 20:22:00,2.5,-14.0,23.06,SSE,167,0.0,0.0,45,0.00,,---,0.00,VWS V14.00,2013-01-15 03:22:00,
2013-01-14 20:27:00,2.1,-14.3,23.06,SSE,167,0.0,0.0,45,0.00,,---,0.00,VWS V14.00,2013-01-15 03:27:00,
2013-01-14 20:33:00,1.6,-14.8,23.06,SSE,167,0.0,0.0,45,0.00,,---,0.00,VWS V14.00,2013-01-15 03:33:00,
2013-01-14 20:38:00,1.2,-15.2,23.06,SSE,167,0.0,0.0,45,0.00,,---,0.00,VWS V14.00,2013-01-15 03:38:00,
2013-01-14 20:43:00,1.2,-15.2,23.06,SSE,167,0.0,0.0,45,0.00,,---,0.00,VWS V14.00,2013-01-15 03:43:00,
2013-01-14 20:48:00,0.7,-15.7,23.06,SSE,167,0.0,0.0,45,0.00,,---,0.00,VWS V14.00,2013-01-15 03:48:00,
2013-01-14 20:53:00,0.3,-16.0,23.06,SSE,167,0.0,0.0,45,0.00,,---,0.00,VWS V14.00,2013-01-15 03:53:00,
2013-01-14 20:58:00,0.1,-16.2,23.06,SSE,167,0.0,0.0,45,0.00,,---,0.00,VWS V14.00,2013-01-15 03:58:00,
2013-01-14 21:03:00,0.0,-16.3,23.09,SSE,167,0.0,0.0,45,0.00,,---,0.00,VWS V14.00,2013-01-15 04:03:00,
2013-01-14 21:08:00,-0.2,-16.5,23.09,SSE,167,0.0,0.0,45,0.00,,---,0.00,VWS V14.00,2013-01-15 04:08:00,
2013-01-14 21:13:00,-0.6,-16.8,23.06,SSE,167,0.0,0.0,45,0.00,,---,0.00,VWS V14.00,2013-01-15 04:13:00,
2013-01-14 21:18:00,-0.8,-17.0,23.06,SSE,167,0.0,0.0,45,0.00,,---,0.00,VWS V14.00,2013-01-15 04:18:00,
2013-01-14 21:23:00,-0.9,-17.1,23.06,SSE,167,0.0,0.0,45,0.00,,---,0.00,VWS V14.00,2013-01-15 04:23:00,
2013-01-14 21:28:00,-1.1,-17.3,23.06,SSE,167,0.0,0.0,45,0.00,,---,0.00,VWS V14.00,2013-01-15 04:28:00,
2013-01-14 21:33:00,-1.3,-17.5,23.06,SSE,167,0.0,0.0,45,0.00,,---,0.00,VWS V14.00,2013-01-15 04:33:00,
2013-01-14 21:38:00,-1.5,-17.6,23.06,SSE,167,0.0,0.0,45,0.00,,---,0.00,VWS V14.00,2013-01-15 04:38:00,
2013-01-14 21:43:00,-1.8,-18.0,23.06,SSE,167,0.0,0.0,45,0.00,,---,0.00,VWS V14.00,2013-01-15 04:43:00,
2013-01-14 21:48:00,-2.2,-18.3,23.06,SSE,167,0.0,0.0,45,0.00,,---,0.00,VWS V14.00,2013-01-15 04:48:00,
2013-01-14 21:53:00,-2.2,-18.3,23.06,SSE,167,0.0,0.0,45,0.00,,---,0.00,VWS V14.00,2013-01-15 04:53:00,
2013-01-14 21:58:00,-2.2,-18.3,23.06,SSE,150,0.0,0.0,45,0.00,,---,0.00,VWS V14.00,2013-01-15 04:58:00,
2013-01-14 22:00:00,-2.2,-18.3,23.06,SSE,150,0.0,0.0,45,0.00,,---,0.00,VWS V14.00,2013-01-15 05:00:00,
2013-01-14 22:04:00,-2.2,-18.3,23.06,SSE,150,0.0,0.0,45,0.00,,---,0.00,VWS V14.00,2013-01-15 05:04:00,
2013-01-14 22:05:00,-2.2,-18.3,23.06,SSE,150,0.0,0.0,45,0.00,,---,0.00,VWS V14.00,2013-01-15 05:05:00,
2013-01-14 22:10:00,-2.2,-18.3,23.06,SSE,150,0.0,0.0,45,0.00,,---,0.00,VWS V14.00,2013-01-15 05:10:00,
2013-01-14 22:15:00,-2.6,-18.6,23.06,SSE,150,0.0,0.0,45,0.00,,---,0.00,VWS V14.00,2013-01-15 05:15:00,
2013-01-14 22:20:00,-2.6,-18.6,23.06,SSE,150,0.0,0.0,45,0.00,,---,0.00,VWS V14.00,2013-01-15 05:20:00,
2013-01-14 22:25:00,-2.7,-18.8,23.06,SSE,150,0.0,0.0,45,0.00,,---,0.00,VWS V14.00,2013-01-15 05:25:00,
2013-01-14 22:30:00,-2.7,-18.8,23.06,SSE,150,0.0,0.0,45,0.00,,---,0.00,VWS V14.00,2013-01-15 05:30:00,
2013-01-14 22:35:00,-2.7,-18.8,23.06,SSE,168,3.1,3.1,45,0.00,,---,0.00,VWS V14.00,2013-01-15 05:35:00,
2013-01-14 22:40:00,-2.7,-18.8,23.06,SSE,168,2.7,2.7,45,0.00,,---,0.00,VWS V14.00,2013-01-15 05:40:00,
2013-01-14 22:45:00,-2.9,-19.0,23.06,WNW,284,0.0,0.0,45,0.00,,---,0.00,VWS V14.00,2013-01-15 05:45:00,
2013-01-14 22:51:00,-3.1,-19.1,23.06,NNW,342,2.7,2.7,45,0.00,,---,0.00,VWS V14.00,2013-01-15 05:51:00,
2013-01-14 22:56:00,-3.1,-19.1,23.06,NNW,338,0.0,0.0,45,0.00,,---,0.00,VWS V14.00,2013-01-15 05:56:00,
2013-01-14 23:01:00,-3.3,-19.3,23.06,NNW,338,0.0,0.0,45,0.00,,---,0.00,VWS V14.00,2013-01-15 06:01:00,
2013-01-14 23:06:00,-3.3,-19.3,23.06,NNW,338,0.0,0.0,45,0.00,,---,0.00,VWS V14.00,2013-01-15 06:06:00,
2013-01-14 23:11:00,-3.5,-19.5,23.06,NNW,338,0.0,0.0,45,0.00,,---,0.00,VWS V14.00,2013-01-15 06:11:00,
2013-01-14 23:16:00,-3.6,-19.6,23.06,NNW,338,0.0,0.0,45,0.00,,---,0.00,VWS V14.00,2013-01-15 06:16:00,
2013-01-14 23:21:00,-3.8,-19.8,23.06,NNW,338,0.0,0.0,45,0.00,,---,0.00,VWS V14.00,2013-01-15 06:21:00,
2013-01-14 23:26:00,-3.8,-19.8,23.06,NNW,338,0.0,0.0,45,0.00,,---,0.00,VWS V14.00,2013-01-15 06:26:00,
2013-01-14 23:31:00,-3.8,-19.8,23.06,NNW,338,0.0,0.0,45,0.00,,---,0.00,VWS V14.00,2013-01-15 06:31:00,
2013-01-14 23:36:00,-4.0,-20.0,23.06,NNW,337,0.0,0.0,45,0.00,,---,0.00,VWS V14.00,2013-01-15 06:36:00,
2013-01-14 23:41:00,-4.2,-20.1,23.06,NNW,337,0.0,0.0,45,0.00,,---,0.00,VWS V14.00,2013-01-15 06:41:00,
2013-01-14 23:46:00,-4.4,-20.3,23.06,WSW,239,5.4,5.4,45,0.00,,---,0.00,VWS V14.00,2013-01-15 06:46:00,
2013-01-14 23:51:00,-4.2,-20.1,23.06,SE,137,0.0,0.0,45,0.00,,---,0.00,VWS V14.00,2013-01-15 06:51:00,
2013-01-14 23:56:00,-4.0,-20.0,23.06,SE,136,0.0,0.0,45,0.00,,---,0.00,VWS V14.00,2013-01-15 06:56:00,